Time,TemperatureF,DewpointF,PressureIn,WindDirection,WindDirectionDegrees,WindSpeedMPH,WindSpeedGustMPH,Humidity,HourlyPrecipIn,Conditions,Clouds,dailyrainin,SolarRadiationWatts/m^2,SoftwareType,DateUTC
2017-06-24 00:04:00,60.5,55.6,29.83,SW,220,3.0,4.0,84,0.00,,,0.00,0,Wunderground v.1.15,2017-06-24 05:04:00,
2017-06-24 00:09:00,60.5,55.6,29.83,SW,214,1.0,4.0,84,0.00,,,0.00,0,Wunderground v.1.15,2017-06-24 05:09:00,
2017-06-24 00:14:00,60.4,55.5,29.83,SW,230,0.0,3.0,84,0.00,,,0.00,0,Wunderground v.1.15,2017-06-24 05:14:00,
2017-06-24 00:19:00,60.3,55.8,29.83,WSW,242,1.0,3.0,85,0.00,,,0.00,0,Wunderground v.1.15,2017-06-24 05:19:00,
2017-06-24 00:24:00,60.2,55.7,29.83,West,260,1.0,4.0,85,0.00,,,0.00,0,Wunderground v.1.15,2017-06-24 05:24:00,
2017-06-24 00:29:00,60.2,55.7,29.83,West,273,2.0,4.0,85,0.00,,,0.00,0,Wunderground v.1.15,2017-06-24 05:29:00,
2017-06-24 00:34:00,60.2,55.7,29.83,West,260,1.0,3.0,85,0.00,,,0.00,0,Wunderground v.1.15,2017-06-24 05:34:00,
2017-06-24 00:39:00,60.2,56.0,29.84,WNW,290,3.0,4.0,86,0.00,,,0.00,0,Wunderground v.1.15,2017-06-24 05:39:00,
2017-06-24 00:44:00,60.3,56.1,29.84,WSW,257,2.0,5.0,86,0.00,,,0.00,0,Wunderground v.1.15,2017-06-24 05:44:00,
2017-06-24 00:49:00,60.4,55.9,29.84,WNW,297,3.0,5.0,85,0.00,,,0.00,0,Wunderground v.1.15,2017-06-24 05:49:00,
2017-06-24 00:54:00,60.4,55.9,29.84,West,280,1.0,4.0,85,0.00,,,0.00,0,Wunderground v.1.15,2017-06-24 05:54:00,
2017-06-24 00:59:00,60.4,55.9,29.84,West,276,2.0,4.0,85,0.00,,,0.00,0,Wunderground v.1.15,2017-06-24 05:59:00,
2017-06-24 01:04:00,60.4,55.9,29.84,WSW,257,2.0,3.0,85,0.00,,,0.00,0,Wunderground v.1.15,2017-06-24 06:04:00,
2017-06-24 01:09:00,60.3,56.1,29.85,WSW,258,1.0,4.0,86,0.00,,,0.00,0,Wunderground v.1.15,2017-06-24 06:09:00,
2017-06-24 01:14:00,60.3,56.1,29.85,WNW,285,1.0,2.0,86,0.00,,,0.00,0,Wunderground v.1.15,2017-06-24 06:14:00,
2017-06-24 01:19:00,60.2,56.0,29.85,West,274,2.0,5.0,86,0.00,,,0.00,0,Wunderground v.1.15,2017-06-24 06:19:00,
2017-06-24 01:24:00,60.2,56.0,29.85,West,270,2.0,4.0,86,0.00,,,0.00,0,Wunderground v.1.15,2017-06-24 06:24:00,
2017-06-24 01:29:00,60.2,56.0,29.85,WNW,287,1.0,6.0,86,0.00,,,0.00,0,Wunderground v.1.15,2017-06-24 06:29:00,
2017-06-24 01:34:00,60.1,55.6,29.84,West,274,1.0,3.0,85,0.00,,,0.00,0,Wunderground v.1.15,2017-06-24 06:34:00,
2017-06-24 01:39:00,60.0,55.8,29.84,NW,307,3.0,6.0,86,0.00,,,0.00,0,Wunderground v.1.15,2017-06-24 06:39:00,
2017-06-24 01:44:00,60.0,55.8,29.84,West,281,1.0,4.0,86,0.00,,,0.00,0,Wunderground v.1.15,2017-06-24 06:44:00,
2017-06-24 01:49:00,60.0,55.8,29.84,WNW,283,3.0,4.0,86,0.00,,,0.00,0,Wunderground v.1.15,2017-06-24 06:49:00,
2017-06-24 01:54:00,60.0,55.8,29.84,WNW,303,2.0,3.0,86,0.00,,,0.00,0,Wunderground v.1.15,2017-06-24 06:54:00,
2017-06-24 01:59:00,59.9,55.7,29.84,West,265,2.0,4.0,86,0.00,,,0.00,0,Wunderground v.1.15,2017-06-24 06:59:00,
2017-06-24 02:04:00,59.9,55.7,29.85,WNW,294,2.0,4.0,86,0.00,,,0.00,0,Wunderground v.1.15,2017-06-24 07:04:00,
2017-06-24 02:09:00,59.9,56.0,29.84,WNW,286,2.0,4.0,87,0.00,,,0.00,0,Wunderground v.1.15,2017-06-24 07:09:00,
2017-06-24 02:14:00,59.9,56.0,29.85,West,274,1.0,3.0,87,0.00,,,0.00,0,Wunderground v.1.15,2017-06-24 07:14:00,
2017-06-24 02:19:00,60.0,56.1,29.85,West,269,3.0,4.0,87,0.00,,,0.00,0,Wunderground v.1.15,2017-06-24 07:19:00,
2017-06-24 02:24:00,60.1,56.2,29.85,WNW,297,0.0,4.0,87,0.00,,,0.00,0,Wunderground v.1.15,2017-06-24 07:24:00,
2017-06-24 02:29:00,60.2,56.3,29.85,SW,215,2.0,5.0,87,0.00,,,0.00,0,Wunderground v.1.15,2017-06-24 07:29:00,
2017-06-24 02:34:00,60.2,56.3,29.85,WNW,292,5.0,5.0,87,0.00,,,0.00,0,Wunderground v.1.15,2017-06-24 07:34:00,
2017-06-24 02:39:00,60.3,56.4,29.84,WNW,286,1.0,6.0,87,0.00,,,0.00,0,Wunderground v.1.15,2017-06-24 07:39:00,
2017-06-24 02:44:00,60.3,56.4,29.85,WNW,296,3.0,8.0,87,0.00,,,0.00,0,Wunderground v.1.15,2017-06-24 07:44:00,
2017-06-24 02:49:00,60.3,56.4,29.85,West,269,2.0,8.0,87,0.00,,,0.00,0,Wunderground v.1.15,2017-06-24 07:49:00,
2017-06-24 02:54:00,60.3,56.4,29.85,WNW,282,1.0,7.0,87,0.00,,,0.00,0,Wunderground v.1.15,2017-06-24 07:54:00,
2017-06-24 02:59:00,60.2,56.3,29.85,West,274,1.0,7.0,87,0.00,,,0.00,0,Wunderground v.1.15,2017-06-24 07:59:00,
2017-06-24 03:04:00,60.1,56.2,29.85,West,264,2.0,7.0,87,0.00,,,0.00,0,Wunderground v.1.15,2017-06-24 08:04:00,
2017-06-24 03:09:00,60.0,56.1,29.85,West,277,1.0,7.0,87,0.00,,,0.00,0,Wunderground v.1.15,2017-06-24 08:09:00,
2017-06-24 03:14:00,59.9,56.0,29.85,West,266,1.0,4.0,87,0.00,,,0.00,0,Wunderground v.1.15,2017-06-24 08:14:00,
2017-06-24 03:19:00,59.8,55.9,29.85,WNW,298,4.0,5.0,87,0.00,,,0.00,0,Wunderground v.1.15,2017-06-24 08:19:00,
2017-06-24 03:24:00,59.6,55.7,29.85,NW,307,1.0,4.0,87,0.00,,,0.00,0,Wunderground v.1.15,2017-06-24 08:24:00,
2017-06-24 03:29:00,59.5,55.6,29.86,SSW,205,3.0,4.0,87,0.00,,,0.00,0,Wunderground v.1.15,2017-06-24 08:29:00,
2017-06-24 03:34:00,59.4,55.5,29.86,SW,229,3.0,5.0,87,0.00,,,0.00,0,Wunderground v.1.15,2017-06-24 08:34:00,
2017-06-24 03:39:00,59.3,55.4,29.86,WNW,289,3.0,6.0,87,0.00,,,0.00,0,Wunderground v.1.15,2017-06-24 08:39:00,
2017-06-24 03:44:00,59.1,55.2,29.86,WNW,290,2.0,5.0,87,0.00,,,0.00,0,Wunderground v.1.15,2017-06-24 08:44:00,
2017-06-24 03:49:00,59.1,55.2,29.86,West,272,4.0,6.0,87,0.00,,,0.00,0,Wunderground v.1.15,2017-06-24 08:49:00,
2017-06-24 03:54:00,58.9,55.4,29.86,WNW,282,1.0,5.0,88,0.00,,,0.00,0,Wunderground v.1.15,2017-06-24 08:54:00,
2017-06-24 03:55:00,58.9,55.4,29.86,NW,305,2.0,5.0,88,0.00,,,0.00,0,Wunderground v.1.15,2017-06-24 08:55:00,
2017-06-24 04:00:00,58.8,55.3,29.86,NW,312,2.0,2.0,88,0.00,,,0.00,0,Wunderground v.1.15,2017-06-24 09:00:00,
2017-06-24 04:05:00,58.7,55.2,29.86,SW,224,1.0,4.0,88,0.00,,,0.00,0,Wunderground v.1.15,2017-06-24 09:05:00,
2017-06-24 04:10:00,58.6,55.1,29.86,West,263,2.0,2.0,88,0.00,,,0.00,0,Wunderground v.1.15,2017-06-24 09:10:00,
2017-06-24 04:15:00,58.5,55.0,29.86,WNW,289,1.0,3.0,88,0.00,,,0.00,0,Wunderground v.1.15,2017-06-24 09:15:00,
2017-06-24 04:20:00,58.4,54.9,29.86,WSW,254,1.0,2.0,88,0.00,,,0.00,0,Wunderground v.1.15,2017-06-24 09:20:00,
2017-06-24 04:25:00,58.3,54.8,29.87,WNW,282,2.0,3.0,88,0.00,,,0.00,0,Wunderground v.1.15,2017-06-24 09:25:00,
2017-06-24 04:30:00,58.1,54.6,29.86,WSW,257,0.0,2.0,88,0.00,,,0.00,0,Wunderground v.1.15,2017-06-24 09:30:00,
2017-06-24 04:35:00,58.0,54.5,29.87,NW,319,2.0,4.0,88,0.00,,,0.00,0,Wunderground v.1.15,2017-06-24 09:35:00,
2017-06-24 04:40:00,58.0,54.5,29.87,West,278,2.0,3.0,88,0.00,,,0.00,0,Wunderground v.1.15,2017-06-24 09:40:00,
2017-06-24 04:45:00,57.9,54.4,29.87,West,267,1.0,3.0,88,0.00,,,0.00,0,Wunderground v.1.15,2017-06-24 09:45:00,
2017-06-24 04:50:00,57.9,54.4,29.87,WNW,290,1.0,3.0,88,0.00,,,0.00,0,Wunderground v.1.15,2017-06-24 09:50:00,
2017-06-24 04:55:00,57.8,54.3,29.87,WSW,242,1.0,4.0,88,0.00,,,0.00,0,Wunderground v.1.15,2017-06-24 09:55:00,
2017-06-24 05:00:00,57.7,54.2,29.87,West,276,1.0,2.0,88,0.00,,,0.00,0,Wunderground v.1.15,2017-06-24 10:00:00,
2017-06-24 05:05:00,57.6,54.1,29.87,WSW,238,1.0,3.0,88,0.00,,,0.00,0,Wunderground v.1.15,2017-06-24 10:05:00,
2017-06-24 05:10:00,57.5,54.0,29.87,WSW,250,0.0,1.0,88,0.00,,,0.00,0,Wunderground v.1.15,2017-06-24 10:10:00,
2017-06-24 05:15:00,57.4,53.9,29.87,WSW,240,0.0,2.0,88,0.00,,,0.00,0,Wunderground v.1.15,2017-06-24 10:15:00,
2017-06-24 05:20:00,57.2,53.7,29.87,West,272,0.0,0.0,88,0.00,,,0.00,0,Wunderground v.1.15,2017-06-24 10:20:00,
2017-06-24 05:25:00,57.1,53.6,29.88,WNW,300,1.0,3.0,88,0.00,,,0.00,5,Wunderground v.1.15,2017-06-24 10:25:00,
2017-06-24 05:30:00,56.9,53.7,29.87,WNW,295,0.0,1.0,89,0.00,,,0.00,9,Wunderground v.1.15,2017-06-24 10:30:00,
2017-06-24 05:35:00,56.9,53.7,29.87,WNW,295,1.0,2.0,89,0.00,,,0.00,16,Wunderground v.1.15,2017-06-24 10:35:00,
2017-06-24 05:40:00,56.8,53.6,29.87,SW,226,2.0,2.0,89,0.00,,,0.00,12,Wunderground v.1.15,2017-06-24 10:40:00,
2017-06-24 05:45:00,56.7,53.5,29.88,WSW,248,0.0,3.0,89,0.00,,,0.00,12,Wunderground v.1.15,2017-06-24 10:45:00,
2017-06-24 05:50:00,56.7,53.5,29.88,SW,236,2.0,3.0,89,0.00,,,0.00,16,Wunderground v.1.15,2017-06-24 10:50:00,
2017-06-24 05:55:00,56.6,53.7,29.88,West,275,2.0,4.0,90,0.00,,,0.00,26,Wunderground v.1.15,2017-06-24 10:55:00,
2017-06-24 06:00:00,56.7,53.8,29.88,West,278,2.0,4.0,90,0.00,,,0.00,63,Wunderground v.1.15,2017-06-24 11:00:00,
2017-06-24 06:05:00,56.9,54.0,29.88,West,273,2.0,5.0,90,0.00,,,0.00,83,Wunderground v.1.15,2017-06-24 11:05:00,
2017-06-24 06:10:00,57.1,54.2,29.88,West,272,1.0,2.0,90,0.00,,,0.00,97,Wunderground v.1.15,2017-06-24 11:10:00,
2017-06-24 06:15:00,57.4,54.5,29.88,NNW,328,3.0,7.0,90,0.00,,,0.00,113,Wunderground v.1.15,2017-06-24 11:15:00,
2017-06-24 06:20:00,57.7,54.5,29.88,WSW,238,4.0,5.0,89,0.00,,,0.00,127,Wunderground v.1.15,2017-06-24 11:20:00,
2017-06-24 06:25:00,58.0,54.8,29.88,WNW,282,4.0,7.0,89,0.00,,,0.00,141,Wunderground v.1.15,2017-06-24 11:25:00,
2017-06-24 06:30:00,58.2,54.7,29.89,SW,234,3.0,3.0,88,0.00,,,0.00,158,Wunderground v.1.15,2017-06-24 11:30:00,
2017-06-24 06:35:00,58.5,55.0,29.89,West,270,3.0,7.0,88,0.00,,,0.00,178,Wunderground v.1.15,2017-06-24 11:35:00,
2017-06-24 06:40:00,58.7,55.2,29.89,WSW,240,2.0,3.0,88,0.00,,,0.00,197,Wunderground v.1.15,2017-06-24 11:40:00,
2017-06-24 06:45:00,59.0,55.1,29.89,West,280,3.0,7.0,87,0.00,,,0.00,216,Wunderground v.1.15,2017-06-24 11:45:00,
2017-06-24 06:50:00,59.2,55.3,29.89,WSW,242,3.0,4.0,87,0.00,,,0.00,234,Wunderground v.1.15,2017-06-24 11:50:00,
2017-06-24 06:55:00,59.4,55.2,29.89,West,271,3.0,9.0,86,0.00,,,0.00,246,Wunderground v.1.15,2017-06-24 11:55:00,
2017-06-24 07:00:00,59.5,55.0,29.89,WSW,258,5.0,7.0,85,0.00,,,0.00,267,Wunderground v.1.15,2017-06-24 12:00:00,
2017-06-24 07:01:00,59.5,55.0,29.89,West,274,4.0,8.0,85,0.00,,,0.00,267,Wunderground v.1.15,2017-06-24 12:01:00,
2017-06-24 07:06:00,59.6,55.1,29.89,WNW,303,6.0,10.0,85,0.00,,,0.00,285,Wunderground v.1.15,2017-06-24 12:06:00,
2017-06-24 07:11:00,59.8,55.0,29.90,WNW,295,5.0,9.0,84,0.00,,,0.00,301,Wunderground v.1.15,2017-06-24 12:11:00,
2017-06-24 07:16:00,59.9,55.1,29.90,WNW,287,4.0,9.0,84,0.00,,,0.00,316,Wunderground v.1.15,2017-06-24 12:16:00,
2017-06-24 07:21:00,60.0,55.2,29.90,WNW,290,3.0,6.0,84,0.00,,,0.00,332,Wunderground v.1.15,2017-06-24 12:21:00,
2017-06-24 07:26:00,60.1,54.9,29.90,NW,315,7.0,11.0,83,0.00,,,0.00,345,Wunderground v.1.15,2017-06-24 12:26:00,
2017-06-24 07:31:00,60.3,55.1,29.90,NW,311,8.0,9.0,83,0.00,,,0.00,362,Wunderground v.1.15,2017-06-24 12:31:00,
2017-06-24 07:36:00,60.6,55.1,29.91,NW,323,5.0,10.0,82,0.00,,,0.00,380,Wunderground v.1.15,2017-06-24 12:36:00,
2017-06-24 07:41:00,60.7,54.8,29.91,WSW,251,4.0,7.0,81,0.00,,,0.00,397,Wunderground v.1.15,2017-06-24 12:41:00,
2017-06-24 07:46:00,60.9,55.0,29.91,WNW,300,2.0,7.0,81,0.00,,,0.00,415,Wunderground v.1.15,2017-06-24 12:46:00,
2017-06-24 07:51:00,61.2,55.3,29.91,West,264,3.0,4.0,81,0.00,,,0.00,434,Wunderground v.1.15,2017-06-24 12:51:00,
2017-06-24 07:56:00,61.3,55.1,29.91,WSW,245,6.0,12.0,80,0.00,,,0.00,446,Wunderground v.1.15,2017-06-24 12:56:00,
2017-06-24 08:01:00,61.3,54.7,29.91,WNW,288,4.0,11.0,79,0.00,,,0.00,459,Wunderground v.1.15,2017-06-24 13:01:00,
2017-06-24 08:06:00,61.3,54.7,29.91,West,265,2.0,11.0,79,0.00,,,0.00,473,Wunderground v.1.15,2017-06-24 13:06:00,
2017-06-24 08:11:00,61.4,54.5,29.92,NW,324,6.0,10.0,78,0.00,,,0.00,487,Wunderground v.1.15,2017-06-24 13:11:00,
2017-06-24 08:16:00,61.6,55.0,29.92,WNW,299,2.0,10.0,79,0.00,,,0.00,503,Wunderground v.1.15,2017-06-24 13:16:00,
2017-06-24 08:21:00,61.9,55.0,29.92,NW,322,5.0,13.0,78,0.00,,,0.00,519,Wunderground v.1.15,2017-06-24 13:21:00,
2017-06-24 08:26:00,62.2,55.3,29.92,West,272,8.0,13.0,78,0.00,,,0.00,527,Wunderground v.1.15,2017-06-24 13:26:00,
2017-06-24 08:31:00,62.0,54.3,29.92,WNW,301,5.0,9.0,76,0.00,,,0.00,547,Wunderground v.1.15,2017-06-24 13:31:00,
2017-06-24 08:36:00,62.1,54.1,29.92,WSW,242,6.0,10.0,75,0.00,,,0.00,564,Wunderground v.1.15,2017-06-24 13:36:00,
2017-06-24 08:41:00,62.3,54.3,29.92,NW,326,5.0,11.0,75,0.00,,,0.00,580,Wunderground v.1.15,2017-06-24 13:41:00,
2017-06-24 08:46:00,62.6,54.6,29.92,NW,312,3.0,11.0,75,0.00,,,0.00,594,Wunderground v.1.15,2017-06-24 13:46:00,
2017-06-24 08:51:00,63.0,54.9,29.92,WNW,303,11.0,12.0,75,0.00,,,0.00,617,Wunderground v.1.15,2017-06-24 13:51:00,
2017-06-24 08:56:00,63.2,54.4,29.92,WSW,254,4.0,12.0,73,0.00,,,0.00,657,Wunderground v.1.15,2017-06-24 13:56:00,
2017-06-24 09:01:00,63.2,54.4,29.93,WSW,245,4.0,6.0,73,0.00,,,0.00,670,Wunderground v.1.15,2017-06-24 14:01:00,
2017-06-24 09:06:00,63.6,55.2,29.92,SW,234,3.0,9.0,74,0.00,,,0.00,700,Wunderground v.1.15,2017-06-24 14:06:00,
2017-06-24 09:11:00,63.8,54.6,29.92,WNW,284,3.0,7.0,72,0.00,,,0.00,719,Wunderground v.1.15,2017-06-24 14:11:00,
2017-06-24 09:16:00,63.5,53.5,29.93,NW,305,2.0,12.0,70,0.00,,,0.00,700,Wunderground v.1.15,2017-06-24 14:16:00,
2017-06-24 09:21:00,63.5,54.3,29.93,NW,305,4.0,8.0,72,0.00,,,0.00,684,Wunderground v.1.15,2017-06-24 14:21:00,
2017-06-24 09:26:00,63.7,54.1,29.93,NW,310,5.0,10.0,71,0.00,,,0.00,756,Wunderground v.1.15,2017-06-24 14:26:00,
2017-06-24 09:31:00,64.0,54.4,29.93,WNW,283,6.0,10.0,71,0.00,,,0.00,754,Wunderground v.1.15,2017-06-24 14:31:00,
2017-06-24 09:36:00,64.3,53.5,29.93,SW,233,2.0,10.0,68,0.00,,,0.00,798,Wunderground v.1.15,2017-06-24 14:36:00,
2017-06-24 09:41:00,64.9,54.5,29.93,WNW,299,3.0,11.0,69,0.00,,,0.00,830,Wunderground v.1.15,2017-06-24 14:41:00,
2017-06-24 09:46:00,65.2,54.4,29.93,WNW,302,2.0,11.0,68,0.00,,,0.00,838,Wunderground v.1.15,2017-06-24 14:46:00,
2017-06-24 09:51:00,65.6,53.9,29.93,WNW,289,4.0,9.0,66,0.00,,,0.00,956,Wunderground v.1.15,2017-06-24 14:51:00,
2017-06-24 09:56:00,65.2,52.7,29.93,West,264,2.0,11.0,64,0.00,,,0.00,160,Wunderground v.1.15,2017-06-24 14:56:00,
2017-06-24 10:01:00,64.8,53.2,29.93,NW,315,7.0,9.0,66,0.00,,,0.00,179,Wunderground v.1.15,2017-06-24 15:01:00,
2017-06-24 10:06:00,64.3,52.3,29.94,WNW,297,2.0,10.0,65,0.00,,,0.00,949,Wunderground v.1.15,2017-06-24 15:06:00,
2017-06-24 10:11:00,64.2,51.8,29.94,WNW,287,1.0,9.0,64,0.00,,,0.00,162,Wunderground v.1.15,2017-06-24 15:11:00,
2017-06-24 10:16:00,64.1,52.5,29.94,WSW,244,3.0,9.0,66,0.00,,,0.00,167,Wunderground v.1.15,2017-06-24 15:16:00,
2017-06-24 10:21:00,64.5,52.5,29.94,WNW,295,5.0,6.0,65,0.00,,,0.00,1042,Wunderground v.1.15,2017-06-24 15:21:00,
2017-06-24 10:26:00,64.7,51.4,29.94,NNW,344,2.0,10.0,62,0.00,,,0.00,279,Wunderground v.1.15,2017-06-24 15:26:00,
2017-06-24 10:31:00,64.7,51.4,29.94,WNW,297,2.0,5.0,62,0.00,,,0.00,186,Wunderground v.1.15,2017-06-24 15:31:00,
2017-06-24 10:36:00,65.2,52.7,29.94,WSW,253,5.0,10.0,64,0.00,,,0.00,1020,Wunderground v.1.15,2017-06-24 15:36:00,
2017-06-24 10:41:00,65.6,51.3,29.94,West,281,11.0,11.0,60,0.00,,,0.00,431,Wunderground v.1.15,2017-06-24 15:41:00,
2017-06-24 10:46:00,65.2,50.5,29.94,West,272,7.0,15.0,59,0.00,,,0.00,1062,Wunderground v.1.15,2017-06-24 15:46:00,
2017-06-24 10:51:00,65.6,51.3,29.94,West,262,2.0,12.0,60,0.00,,,0.00,998,Wunderground v.1.15,2017-06-24 15:51:00,
2017-06-24 10:56:00,66.2,51.9,29.94,WNW,292,7.0,12.0,60,0.00,,,0.00,1151,Wunderground v.1.15,2017-06-24 15:56:00,
2017-06-24 11:01:00,66.7,52.4,29.95,SW,218,3.0,8.0,60,0.00,,,0.00,383,Wunderground v.1.15,2017-06-24 16:01:00,
2017-06-24 11:06:00,66.6,51.8,29.95,West,267,3.0,9.0,59,0.00,,,0.00,211,Wunderground v.1.15,2017-06-24 16:06:00,
2017-06-24 11:11:00,65.6,50.9,29.95,WNW,288,3.0,7.0,59,0.00,,,0.00,174,Wunderground v.1.15,2017-06-24 16:11:00,
2017-06-24 11:16:00,65.5,50.8,29.95,NW,308,4.0,13.0,59,0.00,,,0.00,1236,Wunderground v.1.15,2017-06-24 16:16:00,
2017-06-24 11:21:00,66.1,51.8,29.95,WNW,290,5.0,7.0,60,0.00,,,0.00,455,Wunderground v.1.15,2017-06-24 16:21:00,
2017-06-24 11:26:00,66.1,50.4,29.95,West,279,5.0,13.0,57,0.00,,,0.00,420,Wunderground v.1.15,2017-06-24 16:26:00,
2017-06-24 11:31:00,66.4,51.6,29.95,NNW,330,4.0,9.0,59,0.00,,,0.00,1106,Wunderground v.1.15,2017-06-24 16:31:00,
2017-06-24 11:36:00,66.7,51.9,29.95,WNW,289,4.0,9.0,59,0.00,,,0.00,768,Wunderground v.1.15,2017-06-24 16:36:00,
2017-06-24 11:41:00,66.8,51.1,29.95,NW,320,4.0,14.0,57,0.00,,,0.00,264,Wunderground v.1.15,2017-06-24 16:41:00,
2017-06-24 11:46:00,66.2,51.0,29.96,West,272,3.0,14.0,58,0.00,,,0.00,214,Wunderground v.1.15,2017-06-24 16:46:00,
2017-06-24 11:51:00,65.8,52.4,29.95,West,271,1.0,5.0,62,0.00,,,0.00,1183,Wunderground v.1.15,2017-06-24 16:51:00,
2017-06-24 11:56:00,66.1,51.8,29.95,WSW,251,5.0,8.0,60,0.00,,,0.00,1223,Wunderground v.1.15,2017-06-24 16:56:00,
2017-06-24 12:01:00,66.5,52.6,29.95,NW,315,4.0,7.0,61,0.00,,,0.00,1020,Wunderground v.1.15,2017-06-24 17:01:00,
2017-06-24 12:06:00,67.2,53.3,29.95,NW,311,2.0,8.0,61,0.00,,,0.00,1069,Wunderground v.1.15,2017-06-24 17:06:00,
2017-06-24 12:07:00,67.3,52.9,29.95,SW,236,5.0,8.0,60,0.00,,,0.00,1097,Wunderground v.1.15,2017-06-24 17:07:00,
2017-06-24 12:12:00,67.8,53.9,29.95,SW,226,3.0,9.0,61,0.00,,,0.00,1260,Wunderground v.1.15,2017-06-24 17:12:00,
2017-06-24 12:17:00,68.3,53.9,29.95,SW,220,5.0,10.0,60,0.00,,,0.00,856,Wunderground v.1.15,2017-06-24 17:17:00,
2017-06-24 12:22:00,68.2,53.3,29.96,West,262,2.0,7.0,59,0.00,,,0.00,385,Wunderground v.1.15,2017-06-24 17:22:00,
2017-06-24 12:27:00,67.9,52.1,29.96,WNW,287,5.0,7.0,57,0.00,,,0.00,434,Wunderground v.1.15,2017-06-24 17:27:00,
2017-06-24 12:32:00,67.7,52.9,29.96,West,263,14.0,14.0,59,0.00,,,0.00,408,Wunderground v.1.15,2017-06-24 17:32:00,
2017-06-24 12:33:00,67.6,52.8,29.96,WNW,285,8.0,14.0,59,0.00,,,0.00,418,Wunderground v.1.15,2017-06-24 17:33:00,
2017-06-24 12:38:00,67.0,52.2,29.96,WNW,302,5.0,14.0,59,0.00,,,0.00,439,Wunderground v.1.15,2017-06-24 17:38:00,
2017-06-24 12:43:00,66.6,52.3,29.96,WSW,247,5.0,8.0,60,0.00,,,0.00,497,Wunderground v.1.15,2017-06-24 17:43:00,
2017-06-24 12:47:00,66.4,52.1,29.96,WSW,247,2.0,10.0,60,0.00,,,0.00,350,Wunderground v.1.15,2017-06-24 17:47:00,
2017-06-24 12:52:00,66.4,53.4,29.96,WSW,257,0.0,7.0,63,0.00,,,0.00,1035,Wunderground v.1.15,2017-06-24 17:52:00,
2017-06-24 12:53:00,66.4,53.4,29.96,WSW,257,0.0,7.0,63,0.00,,,0.00,1035,Wunderground v.1.15,2017-06-24 17:53:00,
2017-06-24 12:58:00,67.0,54.0,29.96,WSW,239,3.0,8.0,63,0.00,,,0.00,1020,Wunderground v.1.15,2017-06-24 17:58:00,
2017-06-24 13:03:00,67.6,52.8,29.96,WSW,240,5.0,11.0,59,0.00,,,0.00,1048,Wunderground v.1.15,2017-06-24 18:03:00,
2017-06-24 13:08:00,68.2,52.4,29.96,WNW,290,2.0,12.0,57,0.00,,,0.00,1090,Wunderground v.1.15,2017-06-24 18:08:00,
2017-06-24 13:13:00,68.4,53.0,29.95,SW,232,4.0,11.0,58,0.00,,,0.00,281,Wunderground v.1.15,2017-06-24 18:13:00,
2017-06-24 13:18:00,67.8,52.5,29.96,West,276,1.0,11.0,58,0.00,,,0.00,329,Wunderground v.1.15,2017-06-24 18:18:00,
2017-06-24 13:23:00,67.2,52.8,29.96,WSW,251,3.0,11.0,60,0.00,,,0.00,193,Wunderground v.1.15,2017-06-24 18:23:00,
2017-06-24 13:27:00,66.8,52.5,29.96,West,265,3.0,13.0,60,0.00,,,0.00,160,Wunderground v.1.15,2017-06-24 18:27:00,
2017-06-24 13:33:00,66.1,52.3,29.96,West,270,3.0,9.0,61,0.00,,,0.00,221,Wunderground v.1.15,2017-06-24 18:33:00,
2017-06-24 13:38:00,66.3,53.8,29.96,WSW,249,1.0,11.0,64,0.00,,,0.00,1201,Wunderground v.1.15,2017-06-24 18:38:00,
2017-06-24 13:43:00,67.0,53.5,29.96,NW,316,10.0,11.0,62,0.00,,,0.00,229,Wunderground v.1.15,2017-06-24 18:43:00,
2017-06-24 13:44:00,66.9,53.0,29.96,West,274,3.0,14.0,61,0.00,,,0.00,234,Wunderground v.1.15,2017-06-24 18:44:00,
2017-06-24 13:49:00,66.4,52.1,29.96,West,264,4.0,14.0,60,0.00,,,0.00,288,Wunderground v.1.15,2017-06-24 18:49:00,
2017-06-24 13:54:00,66.1,52.7,29.97,WSW,250,3.0,16.0,62,0.00,,,0.00,306,Wunderground v.1.15,2017-06-24 18:54:00,
2017-06-24 13:59:00,66.6,51.8,29.96,WNW,292,4.0,16.0,59,0.00,,,0.00,1238,Wunderground v.1.15,2017-06-24 18:59:00,
2017-06-24 14:04:00,67.1,52.7,29.96,SW,215,7.0,13.0,60,0.00,,,0.00,1013,Wunderground v.1.15,2017-06-24 19:04:00,
2017-06-24 14:09:00,67.6,52.8,29.96,WSW,257,6.0,13.0,59,0.00,,,0.00,995,Wunderground v.1.15,2017-06-24 19:09:00,
2017-06-24 14:14:00,68.0,51.7,29.96,West,274,6.0,13.0,56,0.00,,,0.00,974,Wunderground v.1.15,2017-06-24 19:14:00,
2017-06-24 14:19:00,68.3,51.5,29.96,NW,308,5.0,14.0,55,0.00,,,0.00,951,Wunderground v.1.15,2017-06-24 19:19:00,
2017-06-24 14:24:00,68.5,52.2,29.97,WSW,238,6.0,16.0,56,0.00,,,0.00,951,Wunderground v.1.15,2017-06-24 19:24:00,
2017-06-24 14:29:00,68.3,52.0,29.97,WSW,253,6.0,17.0,56,0.00,,,0.00,940,Wunderground v.1.15,2017-06-24 19:29:00,
2017-06-24 14:34:00,68.2,51.9,29.97,SE,145,4.0,14.0,56,0.00,,,0.00,947,Wunderground v.1.15,2017-06-24 19:34:00,
2017-06-24 14:39:00,68.4,51.6,29.97,NW,311,12.0,14.0,55,0.00,,,0.00,977,Wunderground v.1.15,2017-06-24 19:39:00,
2017-06-24 14:44:00,68.3,52.5,29.97,WNW,302,2.0,10.0,57,0.00,,,0.00,197,Wunderground v.1.15,2017-06-24 19:44:00,
2017-06-24 14:49:00,67.8,50.0,29.97,WNW,282,4.0,12.0,53,0.00,,,0.00,935,Wunderground v.1.15,2017-06-24 19:49:00,
2017-06-24 14:54:00,68.0,51.2,29.97,WSW,237,3.0,13.0,55,0.00,,,0.00,921,Wunderground v.1.15,2017-06-24 19:54:00,
2017-06-24 14:59:00,68.1,48.8,29.97,West,263,4.0,15.0,50,0.00,,,0.00,889,Wunderground v.1.15,2017-06-24 19:59:00,
2017-06-24 15:04:00,68.5,50.2,29.97,WSW,238,6.0,9.0,52,0.00,,,0.00,902,Wunderground v.1.15,2017-06-24 20:04:00,
2017-06-24 15:09:00,68.7,49.3,29.98,WNW,286,6.0,11.0,50,0.00,,,0.00,921,Wunderground v.1.15,2017-06-24 20:09:00,
2017-06-24 15:14:00,68.3,49.5,29.98,WNW,290,3.0,15.0,51,0.00,,,0.00,1030,Wunderground v.1.15,2017-06-24 20:14:00,
2017-06-24 15:19:00,68.6,49.2,29.98,West,272,6.0,15.0,50,0.00,,,0.00,202,Wunderground v.1.15,2017-06-24 20:19:00,
2017-06-24 15:24:00,67.8,49.0,29.98,West,271,4.0,15.0,51,0.00,,,0.00,271,Wunderground v.1.15,2017-06-24 20:24:00,
2017-06-24 15:29:00,67.6,48.3,29.97,NW,308,12.0,15.0,50,0.00,,,0.00,925,Wunderground v.1.15,2017-06-24 20:29:00,
2017-06-24 15:34:00,68.0,49.2,29.98,West,263,5.0,14.0,51,0.00,,,0.00,858,Wunderground v.1.15,2017-06-24 20:34:00,
2017-06-24 15:39:00,67.9,48.0,29.98,WSW,255,7.0,14.0,49,0.00,,,0.00,267,Wunderground v.1.15,2017-06-24 20:39:00,
2017-06-24 15:44:00,67.5,48.2,29.98,NW,323,8.0,12.0,50,0.00,,,0.00,202,Wunderground v.1.15,2017-06-24 20:44:00,
2017-06-24 15:49:00,67.1,48.4,29.98,West,265,4.0,16.0,51,0.00,,,0.00,204,Wunderground v.1.15,2017-06-24 20:49:00,
2017-06-24 15:54:00,67.1,48.9,29.98,WSW,238,6.0,18.0,52,0.00,,,0.00,900,Wunderground v.1.15,2017-06-24 20:54:00,
2017-06-24 15:59:00,67.0,48.3,29.98,WSW,255,4.0,18.0,51,0.00,,,0.00,190,Wunderground v.1.15,2017-06-24 20:59:00,
2017-06-24 16:04:00,67.2,50.0,29.98,West,270,5.0,7.0,54,0.00,,,0.00,784,Wunderground v.1.15,2017-06-24 21:04:00,
2017-06-24 16:09:00,67.9,50.1,29.98,West,270,3.0,7.0,53,0.00,,,0.00,172,Wunderground v.1.15,2017-06-24 21:09:00,
2017-06-24 16:14:00,67.9,49.6,29.97,WNW,294,7.0,14.0,52,0.00,,,0.00,248,Wunderground v.1.15,2017-06-24 21:14:00,
2017-06-24 16:19:00,67.7,49.4,29.97,West,275,5.0,14.0,52,0.00,,,0.00,258,Wunderground v.1.15,2017-06-24 21:19:00,
2017-06-24 16:24:00,67.8,50.5,29.97,WNW,294,3.0,9.0,54,0.00,,,0.00,714,Wunderground v.1.15,2017-06-24 21:24:00,
2017-06-24 16:29:00,68.3,50.0,29.97,West,269,1.0,9.0,52,0.00,,,0.00,717,Wunderground v.1.15,2017-06-24 21:29:00,
2017-06-24 16:34:00,68.4,50.1,29.97,WSW,257,2.0,15.0,52,0.00,,,0.00,719,Wunderground v.1.15,2017-06-24 21:34:00,
2017-06-24 16:39:00,68.2,48.8,29.97,West,276,5.0,15.0,50,0.00,,,0.00,251,Wunderground v.1.15,2017-06-24 21:39:00,
2017-06-24 16:44:00,67.8,49.0,29.96,SW,224,2.0,9.0,51,0.00,,,0.00,675,Wunderground v.1.15,2017-06-24 21:44:00,
2017-06-24 16:49:00,68.2,49.4,29.96,WSW,247,8.0,19.0,51,0.00,,,0.00,675,Wunderground v.1.15,2017-06-24 21:49:00,
2017-06-24 16:54:00,68.3,48.4,29.96,WSW,240,6.0,18.0,49,0.00,,,0.00,619,Wunderground v.1.15,2017-06-24 21:54:00,
2017-06-24 16:59:00,68.2,48.8,29.96,SW,233,4.0,18.0,50,0.00,,,0.00,603,Wunderground v.1.15,2017-06-24 21:59:00,
2017-06-24 17:04:00,68.4,49.0,29.96,WNW,297,3.0,10.0,50,0.00,,,0.00,599,Wunderground v.1.15,2017-06-24 22:04:00,
2017-06-24 17:09:00,68.8,49.4,29.96,NW,324,5.0,12.0,50,0.00,,,0.00,612,Wunderground v.1.15,2017-06-24 22:09:00,
2017-06-24 17:14:00,68.6,49.2,29.96,WNW,292,4.0,8.0,50,0.00,,,0.00,599,Wunderground v.1.15,2017-06-24 22:14:00,
2017-06-24 17:19:00,68.7,49.3,29.95,SW,230,9.0,10.0,50,0.00,,,0.00,545,Wunderground v.1.15,2017-06-24 22:19:00,
2017-06-24 17:24:00,68.8,48.9,29.96,WSW,257,4.0,12.0,49,0.00,,,0.00,533,Wunderground v.1.15,2017-06-24 22:24:00,
2017-06-24 17:29:00,68.7,48.8,29.96,WNW,300,7.0,12.0,49,0.00,,,0.00,533,Wunderground v.1.15,2017-06-24 22:29:00,
2017-06-24 17:34:00,68.6,49.2,29.95,WSW,253,2.0,11.0,50,0.00,,,0.00,209,Wunderground v.1.15,2017-06-24 22:34:00,
2017-06-24 17:39:00,68.5,49.1,29.96,WNW,282,6.0,11.0,50,0.00,,,0.00,519,Wunderground v.1.15,2017-06-24 22:39:00,
2017-06-24 17:44:00,68.5,49.1,29.96,WSW,249,3.0,8.0,50,0.00,,,0.00,86,Wunderground v.1.15,2017-06-24 22:44:00,
2017-06-24 17:49:00,68.4,49.6,29.96,WSW,241,4.0,9.0,51,0.00,,,0.00,436,Wunderground v.1.15,2017-06-24 22:49:00,
2017-06-24 17:54:00,68.1,48.2,29.96,West,263,5.0,10.0,49,0.00,,,0.00,76,Wunderground v.1.15,2017-06-24 22:54:00,
2017-06-24 17:59:00,67.4,48.6,29.96,WSW,238,5.0,10.0,51,0.00,,,0.00,76,Wunderground v.1.15,2017-06-24 22:59:00,
2017-06-24 18:04:00,66.8,48.6,29.97,WNW,282,2.0,8.0,52,0.00,,,0.00,90,Wunderground v.1.15,2017-06-24 23:04:00,
2017-06-24 18:09:00,66.5,48.3,29.97,NW,304,5.0,10.0,52,0.00,,,0.00,56,Wunderground v.1.15,2017-06-24 23:09:00,
2017-06-24 18:14:00,66.2,48.6,29.99,WSW,248,8.0,19.0,53,0.00,,,0.00,18,Wunderground v.1.15,2017-06-24 23:14:00,
2017-06-24 18:19:00,63.5,51.1,30.02,WNW,286,12.0,26.0,64,0.00,,,0.00,19,Wunderground v.1.15,2017-06-24 23:19:00,
2017-06-24 18:24:00,59.3,51.0,30.03,NNW,328,6.0,21.0,74,0.17,,,0.02,19,Wunderground v.1.15,2017-06-24 23:24:00,
2017-06-24 18:29:00,57.2,51.1,30.03,West,264,4.0,21.0,80,0.10,,,0.02,19,Wunderground v.1.15,2017-06-24 23:29:00,
2017-06-24 18:34:00,56.4,50.6,30.03,NW,307,5.0,13.0,81,0.24,,,0.04,21,Wunderground v.1.15,2017-06-24 23:34:00,
2017-06-24 18:39:00,55.9,50.8,30.02,WSW,247,4.0,13.0,83,0.11,,,0.04,25,Wunderground v.1.15,2017-06-24 23:39:00,
2017-06-24 18:44:00,55.7,50.6,30.01,WSW,247,5.0,7.0,83,0.06,,,0.05,39,Wunderground v.1.15,2017-06-24 23:44:00,
2017-06-24 18:49:00,55.6,51.2,29.99,WNW,295,3.0,9.0,85,0.06,,,0.05,74,Wunderground v.1.15,2017-06-24 23:49:00,
2017-06-24 18:54:00,55.6,51.2,30.00,NW,317,3.0,5.0,85,0.05,,,0.05,295,Wunderground v.1.15,2017-06-24 23:54:00,
2017-06-24 18:59:00,55.8,51.7,30.00,WNW,293,1.0,5.0,86,0.04,,,0.05,232,Wunderground v.1.15,2017-06-24 23:59:00,
2017-06-24 19:04:00,55.9,52.1,30.00,WNW,293,1.0,2.0,87,0.00,,,0.05,135,Wunderground v.1.15,2017-06-25 00:04:00,
2017-06-24 19:09:00,56.1,52.3,30.00,WNW,287,0.0,2.0,87,0.00,,,0.05,84,Wunderground v.1.15,2017-06-25 00:09:00,
2017-06-24 19:14:00,56.1,52.3,30.00,WNW,303,1.0,3.0,87,0.00,,,0.05,60,Wunderground v.1.15,2017-06-25 00:14:00,
2017-06-24 19:19:00,56.1,52.3,30.00,WNW,303,1.0,3.0,87,0.00,,,0.05,51,Wunderground v.1.15,2017-06-25 00:19:00,
2017-06-24 19:24:00,56.0,52.2,30.00,WNW,303,1.0,3.0,87,0.00,,,0.05,47,Wunderground v.1.15,2017-06-25 00:24:00,
2017-06-24 19:29:00,56.0,52.2,30.00,West,281,1.0,4.0,87,0.00,,,0.05,70,Wunderground v.1.15,2017-06-25 00:29:00,
2017-06-24 19:34:00,56.0,52.2,30.01,WNW,292,3.0,3.0,87,0.00,,,0.05,42,Wunderground v.1.15,2017-06-25 00:34:00,
2017-06-24 19:39:00,56.0,52.5,30.02,SW,230,1.0,5.0,88,0.00,,,0.05,25,Wunderground v.1.15,2017-06-25 00:39:00,
2017-06-24 19:44:00,55.9,52.4,30.02,SW,234,1.0,4.0,88,0.00,,,0.05,19,Wunderground v.1.15,2017-06-25 00:44:00,
2017-06-24 19:49:00,55.8,52.3,30.02,WNW,294,1.0,4.0,88,0.00,,,0.05,12,Wunderground v.1.15,2017-06-25 00:49:00,
2017-06-24 19:54:00,55.7,52.2,30.03,WSW,239,2.0,4.0,88,0.00,,,0.05,21,Wunderground v.1.15,2017-06-25 00:54:00,
2017-06-24 19:59:00,55.7,52.2,30.02,West,264,2.0,9.0,88,0.00,,,0.05,54,Wunderground v.1.15,2017-06-25 00:59:00,
2017-06-24 20:04:00,55.7,52.2,30.01,South,188,0.0,4.0,88,0.00,,,0.05,58,Wunderground v.1.15,2017-06-25 01:04:00,
2017-06-24 20:09:00,55.7,52.2,30.00,WSW,240,1.0,4.0,88,0.00,,,0.05,60,Wunderground v.1.15,2017-06-25 01:09:00,
2017-06-24 20:14:00,55.7,52.2,30.01,WSW,239,2.0,3.0,88,0.00,,,0.05,54,Wunderground v.1.15,2017-06-25 01:14:00,